Year,Month,Day,Hour,Minute,Value (Times are PST for temperature in C)
2011,10,23,08,36,3.10
2011,10,23,08,37,3.10
2011,10,23,08,38,3.10
2011,10,23,08,39,3.20
2011,10,23,08,40,3.20
2011,10,23,08,41,3.20
2011,10,23,08,42,3.20
2011,10,23,08,43,3.30
2011,10,23,08,44,3.30
2011,10,23,08,45,3.20
2011,10,23,08,46,3.20
2011,10,23,08,47,3.20
2011,10,23,08,48,3.20
2011,10,23,08,49,3.20
2011,10,23,08,50,3.20
2011,10,23,08,51,3.30
2011,10,23,08,52,3.30
2011,10,23,08,53,3.30
2011,10,23,08,54,3.40
2011,10,23,08,55,3.40
2011,10,23,08,56,3.40
2011,10,23,08,57,3.40
2011,10,23,08,58,3.30
2011,10,23,08,59,3.30
2011,10,23,09,00,3.30
2011,10,23,09,01,3.30
2011,10,23,09,02,3.40
2011,10,23,09,03,3.50
2011,10,23,09,04,3.60
2011,10,23,09,05,3.70
2011,10,23,09,06,3.80
2011,10,23,09,07,3.90
2011,10,23,09,08,4.00
2011,10,23,09,09,4.10
2011,10,23,09,10,4.20
2011,10,23,09,11,4.30
2011,10,23,09,12,4.40
2011,10,23,09,13,4.40
2011,10,23,09,14,4.40
2011,10,23,09,15,4.50
2011,10,23,09,16,4.50
2011,10,23,09,17,4.50
2011,10,23,09,18,4.50
2011,10,23,09,19,4.40
2011,10,23,09,20,4.40
2011,10,23,09,21,4.40
2011,10,23,09,22,4.40
2011,10,23,09,23,4.40
2011,10,23,09,24,4.40
2011,10,23,09,25,4.40
2011,10,23,09,26,4.40
2011,10,23,09,27,4.50
2011,10,23,09,28,4.50
2011,10,23,09,29,4.50
2011,10,23,09,30,4.60
2011,10,23,09,31,4.60
2011,10,23,09,32,4.70
2011,10,23,09,33,4.80
2011,10,23,09,34,4.90
2011,10,23,09,35,5.00
2011,10,23,09,36,5.10
2011,10,23,09,37,5.10
2011,10,23,09,38,5.20
2011,10,23,09,39,5.30
2011,10,23,09,40,5.50
2011,10,23,09,41,5.60
2011,10,23,09,42,5.60
2011,10,23,09,43,5.60
2011,10,23,09,44,5.70
2011,10,23,09,45,5.80
2011,10,23,09,46,5.90
2011,10,23,09,47,5.90
2011,10,23,09,48,5.90
2011,10,23,09,49,6.00
2011,10,23,09,50,6.10
2011,10,23,09,51,6.20
2011,10,23,09,52,6.40
2011,10,23,09,53,6.60
2011,10,23,09,54,6.70
2011,10,23,09,55,6.80
2011,10,23,09,56,7.00
2011,10,23,09,57,7.00
2011,10,23,09,58,7.10
2011,10,23,09,59,7.20
2011,10,23,10,00,7.20
2011,10,23,10,01,7.30
2011,10,23,10,02,7.40
2011,10,23,10,03,7.50
2011,10,23,10,04,7.60
2011,10,23,10,05,7.70
2011,10,23,10,06,7.70
2011,10,23,10,07,7.80
2011,10,23,10,08,7.80
2011,10,23,10,09,7.80
2011,10,23,10,10,7.90
2011,10,23,10,11,8.00
2011,10,23,10,12,8.10
2011,10,23,10,13,8.10
2011,10,23,10,14,8.20
2011,10,23,10,15,8.20
2011,10,23,10,16,8.30
2011,10,23,10,17,8.40
2011,10,23,10,18,8.50
2011,10,23,10,19,8.50
2011,10,23,10,20,8.60
2011,10,23,10,21,8.70
2011,10,23,10,22,8.80
2011,10,23,10,23,8.90
2011,10,23,10,24,9.00
2011,10,23,10,25,9.10
2011,10,23,10,26,9.10
2011,10,23,10,27,9.30
2011,10,23,10,28,9.30
2011,10,23,10,29,9.40
2011,10,23,10,30,9.50
2011,10,23,10,31,9.60
2011,10,23,10,32,9.60
2011,10,23,10,33,9.70
2011,10,23,10,34,9.80
2011,10,23,10,35,9.90
2011,10,23,10,36,10.00
2011,10,23,10,37,10.10
2011,10,23,10,38,10.20
2011,10,23,10,39,10.30
2011,10,23,10,40,10.40
2011,10,23,10,41,10.50
2011,10,23,10,42,10.60
2011,10,23,10,43,10.60
2011,10,23,10,44,10.50
2011,10,23,10,45,10.50
2011,10,23,10,46,10.50
2011,10,23,10,47,10.40
2011,10,23,10,48,10.40
2011,10,23,10,49,10.40
2011,10,23,10,50,10.40
2011,10,23,10,51,10.30
2011,10,23,10,52,10.30
2011,10,23,10,53,10.20
2011,10,23,10,54,10.20
2011,10,23,10,55,10.10
2011,10,23,10,56,10.10
2011,10,23,10,57,10.00
2011,10,23,10,58,10.00
2011,10,23,10,59,9.90
2011,10,23,11,00,9.90
2011,10,23,11,01,9.80
2011,10,23,11,02,9.70
2011,10,23,11,03,9.70
2011,10,23,11,04,9.70
2011,10,23,11,05,9.60
2011,10,23,11,06,9.60
2011,10,23,11,07,9.60
2011,10,23,11,08,9.60
2011,10,23,11,09,9.70
2011,10,23,11,10,9.70
2011,10,23,11,11,9.70
2011,10,23,11,12,9.70
2011,10,23,11,13,9.60
2011,10,23,11,14,9.60
2011,10,23,11,15,9.60
2011,10,23,11,16,9.60
2011,10,23,11,17,9.60
2011,10,23,11,18,9.60
2011,10,23,11,19,9.60
2011,10,23,11,20,9.60
2011,10,23,11,21,9.60
2011,10,23,11,22,9.60
2011,10,23,11,23,9.60
2011,10,23,11,24,9.60
2011,10,23,11,25,9.70
2011,10,23,11,26,9.70
2011,10,23,11,27,9.70
2011,10,23,11,28,9.70
2011,10,23,11,29,9.70
2011,10,23,11,30,9.70
2011,10,23,11,31,9.70
2011,10,23,11,32,9.70
2011,10,23,11,33,9.60
2011,10,23,11,34,9.60
2011,10,23,11,35,9.60
2011,10,23,11,36,9.60
2011,10,23,11,37,9.60
2011,10,23,11,38,9.60
2011,10,23,11,39,9.60
2011,10,23,11,40,9.60
2011,10,23,11,41,9.60
2011,10,23,11,42,9.60
2011,10,23,11,43,9.50
2011,10,23,11,44,9.50
2011,10,23,11,45,9.40
2011,10,23,11,46,9.40
2011,10,23,11,47,9.40
2011,10,23,11,48,9.50
2011,10,23,11,49,9.50
2011,10,23,11,50,9.50
2011,10,23,11,51,9.50
2011,10,23,11,52,9.60
2011,10,23,11,53,9.60
2011,10,23,11,54,9.60
2011,10,23,11,55,9.70
2011,10,23,11,56,9.70
2011,10,23,11,57,9.80
2011,10,23,11,58,9.80
2011,10,23,11,59,9.80
2011,10,23,12,00,9.80
2011,10,23,12,01,9.80
2011,10,23,12,02,9.80
2011,10,23,12,03,9.80
2011,10,23,12,04,9.90
2011,10,23,12,05,9.90
2011,10,23,12,06,10.00
2011,10,23,12,07,10.00
2011,10,23,12,08,9.90
2011,10,23,12,09,9.90
2011,10,23,12,10,9.90
2011,10,23,12,11,10.00
2011,10,23,12,12,10.00
2011,10,23,12,13,10.00
2011,10,23,12,14,10.00
2011,10,23,12,15,10.00
2011,10,23,12,16,10.00
2011,10,23,12,17,9.90
2011,10,23,12,18,9.90
2011,10,23,12,19,10.00
2011,10,23,12,20,10.00
2011,10,23,12,21,10.10
2011,10,23,12,22,10.20
2011,10,23,12,23,10.20
2011,10,23,12,24,10.30
2011,10,23,12,25,10.30
2011,10,23,12,26,10.30
2011,10,23,12,27,10.40
2011,10,23,12,28,10.30
2011,10,23,12,29,10.30
2011,10,23,12,30,10.30
2011,10,23,12,31,10.30
2011,10,23,12,32,10.30
2011,10,23,12,33,10.30
2011,10,23,12,34,10.20
2011,10,23,12,35,10.20
2011,10,23,12,36,10.20
2011,10,23,12,37,10.20
2011,10,23,12,38,10.30
2011,10,23,12,39,10.30
2011,10,23,12,40,10.30
2011,10,23,12,41,10.30
2011,10,23,12,42,10.30
2011,10,23,12,43,10.30
2011,10,23,12,44,10.30
2011,10,23,12,45,10.30
2011,10,23,12,46,10.30
2011,10,23,12,47,10.30
2011,10,23,12,48,10.30
2011,10,23,12,49,10.30
2011,10,23,12,50,10.40
2011,10,23,12,51,10.40
2011,10,23,12,52,10.50
2011,10,23,12,53,10.50
2011,10,23,12,54,10.50
2011,10,23,12,55,10.50
2011,10,23,12,56,10.50
2011,10,23,12,57,10.60
2011,10,23,12,58,10.60
2011,10,23,12,59,10.60
2011,10,23,13,00,10.60
2011,10,23,13,01,10.70
2011,10,23,13,02,10.70
2011,10,23,13,03,10.80
2011,10,23,13,04,11.00
2011,10,23,13,05,11.20
2011,10,23,13,06,11.30
2011,10,23,13,07,11.30
2011,10,23,13,08,11.20
2011,10,23,13,09,11.20
2011,10,23,13,10,11.20
2011,10,23,13,11,11.10
2011,10,23,13,12,11.10
2011,10,23,13,13,11.10
2011,10,23,13,14,11.00
2011,10,23,13,15,10.90
2011,10,23,13,16,10.90
2011,10,23,13,17,10.90
2011,10,23,13,18,10.90
2011,10,23,13,19,10.80
2011,10,23,13,20,10.90
2011,10,23,13,21,10.90
2011,10,23,13,22,10.90
2011,10,23,13,23,10.90
2011,10,23,13,24,11.00
2011,10,23,13,25,11.00
2011,10,23,13,26,11.10
2011,10,23,13,27,11.20
2011,10,23,13,28,11.30
2011,10,23,13,29,11.30
2011,10,23,13,30,11.30
2011,10,23,13,31,11.40
2011,10,23,13,32,11.50
2011,10,23,13,33,11.50
2011,10,23,13,34,11.50
2011,10,23,13,35,11.60
2011,10,23,13,36,11.50
2011,10,23,13,37,11.50
2011,10,23,13,38,11.50
2011,10,23,13,39,11.50
2011,10,23,13,40,11.40
2011,10,23,13,41,11.30
2011,10,23,13,42,11.30
2011,10,23,13,43,11.20
2011,10,23,13,44,11.10
2011,10,23,13,45,11.10
2011,10,23,13,46,11.10
2011,10,23,13,47,11.00
2011,10,23,13,48,11.00
2011,10,23,13,49,10.90
2011,10,23,13,50,10.90
2011,10,23,13,51,10.90
2011,10,23,13,52,10.90
2011,10,23,13,53,10.90
2011,10,23,13,54,11.00
2011,10,23,13,55,11.00
2011,10,23,13,56,11.00
2011,10,23,13,57,11.10
2011,10,23,13,58,11.10
2011,10,23,13,59,11.20
2011,10,23,14,00,11.30
2011,10,23,14,01,11.40
2011,10,23,14,02,11.50
2011,10,23,14,03,11.50
2011,10,23,14,04,11.60
2011,10,23,14,05,11.70
2011,10,23,14,06,11.80
2011,10,23,14,07,11.90
2011,10,23,14,08,11.90
2011,10,23,14,09,11.90
2011,10,23,14,10,11.90
2011,10,23,14,11,12.00
2011,10,23,14,12,12.00
2011,10,23,14,13,12.00
2011,10,23,14,14,12.10
2011,10,23,14,15,12.10
2011,10,23,14,16,12.10
2011,10,23,14,17,12.10
2011,10,23,14,18,12.30
2011,10,23,14,19,12.50
2011,10,23,14,20,12.60
2011,10,23,14,21,12.50
2011,10,23,14,22,12.50
2011,10,23,14,23,12.40
2011,10,23,14,24,12.40
2011,10,23,14,25,12.30
2011,10,23,14,26,12.30
2011,10,23,14,27,12.30
2011,10,23,14,28,12.30
2011,10,23,14,29,12.30
2011,10,23,14,30,12.30
2011,10,23,14,31,12.30
2011,10,23,14,32,12.30
2011,10,23,14,33,12.30
2011,10,23,14,34,12.30
2011,10,23,14,35,12.40
2011,10,23,14,36,12.40
2011,10,23,14,37,12.40
2011,10,23,14,38,12.40
2011,10,23,14,39,12.30
2011,10,23,14,40,12.30
2011,10,23,14,41,12.20
2011,10,23,14,42,12.30
2011,10,23,14,43,12.30
2011,10,23,14,44,12.20
2011,10,23,14,45,12.20
2011,10,23,14,46,12.20
2011,10,23,14,47,12.20
2011,10,23,14,48,12.10
2011,10,23,14,49,12.10
2011,10,23,14,50,12.20
2011,10,23,14,51,12.30
2011,10,23,14,52,12.30
2011,10,23,14,53,12.30
2011,10,23,14,54,12.40
2011,10,23,14,55,12.40
2011,10,23,14,56,12.30
2011,10,23,14,57,12.30
2011,10,23,14,58,12.40
2011,10,23,14,59,12.50
2011,10,23,15,00,12.60
2011,10,23,15,01,12.60
2011,10,23,15,02,12.60
2011,10,23,15,03,12.50
2011,10,23,15,04,12.50
2011,10,23,15,05,12.50
2011,10,23,15,06,12.40
2011,10,23,15,07,12.30
2011,10,23,15,08,12.20
2011,10,23,15,09,12.10
2011,10,23,15,10,12.10
2011,10,23,15,11,12.10
2011,10,23,15,12,12.10
2011,10,23,15,13,12.10
2011,10,23,15,14,12.10
2011,10,23,15,15,12.10
2011,10,23,15,16,12.20
2011,10,23,15,17,12.20
2011,10,23,15,18,12.20
2011,10,23,15,19,12.20
2011,10,23,15,20,12.20
2011,10,23,15,21,12.10
2011,10,23,15,22,12.00
2011,10,23,15,23,12.00
2011,10,23,15,24,11.90
2011,10,23,15,25,11.80
2011,10,23,15,26,11.80
2011,10,23,15,27,11.80
2011,10,23,15,28,11.80
2011,10,23,15,29,11.80
2011,10,23,15,30,11.80
2011,10,23,15,31,11.80
2011,10,23,15,32,11.70
2011,10,23,15,33,11.70
2011,10,23,15,34,11.80
2011,10,23,15,35,11.80
2011,10,23,15,36,11.80
2011,10,23,15,37,11.70
2011,10,23,15,38,11.70
2011,10,23,15,39,11.70
2011,10,23,15,40,11.80
2011,10,23,15,41,11.80
2011,10,23,15,42,11.80
2011,10,23,15,43,11.90
2011,10,23,15,44,11.90
2011,10,23,15,45,11.90
2011,10,23,15,46,12.00
2011,10,23,15,47,12.00
2011,10,23,15,48,12.00
2011,10,23,15,49,11.90
2011,10,23,15,50,11.80
2011,10,23,15,51,11.80
2011,10,23,15,52,11.70
2011,10,23,15,53,11.70
2011,10,23,15,54,11.60
2011,10,23,15,55,11.60
2011,10,23,15,56,11.60
2011,10,23,15,57,11.50
2011,10,23,15,58,11.50
2011,10,23,15,59,11.40
2011,10,23,16,00,11.40
2011,10,23,16,01,11.30
2011,10,23,16,02,11.30
2011,10,23,16,03,11.30
2011,10,23,16,04,11.20
2011,10,23,16,05,11.20
2011,10,23,16,06,11.20
2011,10,23,16,07,11.20
2011,10,23,16,08,11.20
2011,10,23,16,09,11.20
2011,10,23,16,10,11.20
2011,10,23,16,11,11.20
2011,10,23,16,12,11.30
2011,10,23,16,13,11.30
2011,10,23,16,14,11.30
2011,10,23,16,15,11.30
2011,10,23,16,16,11.30
2011,10,23,16,17,11.30
2011,10,23,16,18,11.20
2011,10,23,16,19,11.20
2011,10,23,16,20,11.30
2011,10,23,16,21,11.30
2011,10,23,16,22,11.20
2011,10,23,16,23,11.20
2011,10,23,16,24,11.20
2011,10,23,16,25,11.20
2011,10,23,16,26,11.20
2011,10,23,16,27,11.10
2011,10,23,16,28,11.10
2011,10,23,16,29,11.00
2011,10,23,16,30,10.90
2011,10,23,16,31,10.90
2011,10,23,16,32,10.90
2011,10,23,16,33,10.80
2011,10,23,16,34,10.80
2011,10,23,16,35,10.80
2011,10,23,16,36,10.70
2011,10,23,16,37,10.70
2011,10,23,16,38,10.60
2011,10,23,16,39,10.60
2011,10,23,16,40,10.60
2011,10,23,16,41,10.60
2011,10,23,16,42,10.50
2011,10,23,16,43,10.50
2011,10,23,16,44,10.50
2011,10,23,16,45,10.40
2011,10,23,16,46,10.40
2011,10,23,16,47,10.40
2011,10,23,16,48,10.40
2011,10,23,16,49,10.40
2011,10,23,16,50,10.40
2011,10,23,16,51,10.50
2011,10,23,16,52,10.50
2011,10,23,16,53,10.50
2011,10,23,16,54,10.50
2011,10,23,16,55,10.60
2011,10,23,16,56,10.60
2011,10,23,16,57,10.60
2011,10,23,16,58,10.60
2011,10,23,16,59,10.60
2011,10,23,17,00,10.60
2011,10,23,17,01,10.60
2011,10,23,17,02,10.60
2011,10,23,17,03,10.60
2011,10,23,17,04,10.60
2011,10,23,17,05,10.60
2011,10,23,17,06,10.60
2011,10,23,17,07,10.60
2011,10,23,17,08,10.60
2011,10,23,17,09,10.60
2011,10,23,17,10,10.60
2011,10,23,17,11,10.60
2011,10,23,17,12,10.60
2011,10,23,17,13,10.60
2011,10,23,17,14,10.60
2011,10,23,17,15,10.60
2011,10,23,17,16,10.60
2011,10,23,17,17,10.50
2011,10,23,17,18,10.50
2011,10,23,17,19,10.50
2011,10,23,17,20,10.50
2011,10,23,17,21,10.50
2011,10,23,17,22,10.40
2011,10,23,17,23,10.40
2011,10,23,17,24,10.40
2011,10,23,17,25,10.40
2011,10,23,17,26,10.40
2011,10,23,17,27,10.40
2011,10,23,17,28,10.40
2011,10,23,17,29,10.40
2011,10,23,17,30,10.40
2011,10,23,17,31,10.30
2011,10,23,17,32,10.30
2011,10,23,17,33,10.30
2011,10,23,17,34,10.30
2011,10,23,17,35,10.30
2011,10,23,17,36,10.20
2011,10,23,17,37,10.20
2011,10,23,17,38,10.20
2011,10,23,17,39,10.20
2011,10,23,17,40,10.20
2011,10,23,17,41,10.20
2011,10,23,17,42,10.20
2011,10,23,17,43,10.20
2011,10,23,17,44,10.20
2011,10,23,17,45,10.20
2011,10,23,17,46,10.10
2011,10,23,17,47,10.10
2011,10,23,17,48,10.10
2011,10,23,17,49,10.10
2011,10,23,17,50,10.10
2011,10,23,17,51,10.10
2011,10,23,17,52,10.10
2011,10,23,17,53,10.10
2011,10,23,17,54,10.10
2011,10,23,17,55,10.10
2011,10,23,17,56,10.10
2011,10,23,17,57,10.10
2011,10,23,17,58,10.10
2011,10,23,17,59,10.10
